Probability
0 0 0 0 0 0 0 0 0 0 0 0 3 13 16 23 6 3 0 0 6 94 100 100 100 100 100 100 100 100 100 100 100 100 100 100 100 100 100 100 100 100 100 100 100 94 81 74 65
0 0 0 0 0 0 0 0 0 0 0 3 6 39 32 39 52 26 10 0 35 97 100 100 100 100 100 100 100 100 100 100 100 100 100 100 100 100 100 100 100 100 100 100 90 74 65 52 39
0 0 0 0 0 0 0 0 0 0 3 3 6 26 39 45 71 61 19 3 19 81 97 100 100 100 100 100 100 100 100 100 100 100 100 100 100 100 100 100 100 100 100 100 84 71 61 48 35
0 0 0 0 0 0 0 0 0 0 0 0 6 35 42 48 94 81 13 3 10 77 97 100 100 100 100 100 100 100 100 100 100 100 100 100 100 100 100 100 100 100 100 90 74 71 68 48 29
0 0 0 0 0 0 0 0 0 0 0 6 42 65 55 81 97 39 19 13 10 65 100 100 100 100 100 100 100 100 100 100 100 100 100 100 100 100 100 100 100 100 94 84 81 77 61 45 35
0 0 0 0 0 0 0 0 0 0 3 10 55 55 45 94 94 71 52 39 16 71 100 100 100 100 100 100 100 100 100 100 100 100 100 100 100 100 100 100 100 94 87 81 74 71 61 48 35
0 0 0 0 0 0 0 0 0 0 0 0 32 48 45 87 94 94 87 77 52 74 100 100 100 100 100 100 100 100 100 100 100 100 100 100 100 100 100 100 97 90 81 71 68 61 45 32 26
0 0 0 0 0 0 0 0 0 0 0 0 23 58 48 42 84 97 100 97 74 81 94 97 97 100 100 100 100 100 100 100 100 100 100 100 100 100 100 100 94 90 77 71 68 48 35 29 23
0 0 0 0 0 0 0 0 0 0 0 3 10 35 52 45 65 97 100 100 87 81 87 97 97 100 97 100 100 100 100 100 100 100 100 100 87 87 100 90 90 84 74 74 52 39 35 26 23
0 0 0 0 0 0 0 0 0 0 6 16 32 45 52 42 55 90 100 100 97 81 87 94 94 94 87 90 100 100 97 97 97 94 100 71 23 13 65 84 94 77 71 55 48 39 32 19 10
0 0 0 0 0 0 0 0 0 3 3 13 29 48 48 45 45 71 97 97 97 94 84 90 90 87 84 81 87 84 74 84 74 55 61 26 16 3 32 26 71 65 48 35 23 19 23 13 3
0 0 0 0 0 0 0 0 0 0 3 13 29 48 55 35 35 65 84 90 97 90 90 94 90 90 84 81 81 71 65 55 42 35 29 16 10 6 0 0 13 6 3 3 0 0 3 0 0
0 0 0 0 0 0 0 0 0 0 3 16 29 48 45 42 42 52 71 90 90 94 90 97 94 94 84 68 55 68 61 45 26 32 35 26 10 6 0 0 0 0 0 0 0 0 0 0 0
0 0 0 0 0 0 0 0 0 0 3 13 19 35 39 32 29 29 48 61 90 94 94 94 100 100 87 68 61 74 68 52 35 32 35 29 13 6 3 3 0 0 0 0 0 0 0 0 0
0 0 0 0 0 0 0 0 0 0 6 10 16 19 26 13 19 19 35 55 71 84 90 87 97 94 90 71 65 77 65 52 42 42 32 23 13 6 0 0 0 0 0 0 0 0 0 0 0
0 0 0 0 0 0 0 0 0 0 3 3 6 6 6 10 16 19 35 52 65 81 81 84 90 87 77 68 45 65 58 39 35 26 13 10 3 0 0 0 0 0 0 0 0 0 0 0 0
0 0 0 0 0 0 0 0 0 0 0 3 3 3 3 3 10 10 29 45 65 68 84 81 74 71 68 35 39 39 26 23 16 13 10 6 0 0 0 0 0 0 0 0 0 0 0 0 0
0 0 0 0 0 0 0 0 0 0 0 3 0 0 0 3 3 10 29 42 55 71 74 74 81 68 55 35 29 19 10 10 10 10 6 0 0 0 0 0 0 0 0 0 0 0 0 0 0
0 0 0 0 0 0 0 0 0 0 0 0 0 0 0 6 6 19 23 35 45 68 68 71 81 65 58 35 26 23 13 6 0 0 0 0 0 0 0 0 0 0 0 0 0 0 0 0 0
0 0 0 0 0 0 0 0 0 0 0 0 0 0 6 16 26 26 29 55 65 71 71 71 71 65 55 35 23 10 0 0 0 0 0 0 0 0 0 0 0 0 0 0 0 0 0 0 0
0 0 0 0 0 0 0 0 0 0 0 0 0 3 16 26 32 35 48 68 61 74 81 74 71 55 42 39 13 3 0 0 0 0 0 0 0 0 0 0 0 0 0 0 0 0 0 0 0
0 0 0 0 0 0 0 0 0 0 0 0 3 6 23 32 39 55 68 74 68 65 68 77 45 45 29 19 10 0 0 0 0 0 0 0 0 0 0 0 0 0 0 0 0 0 0 0 0
0 0 0 0 0 0 0 0 0 0 0 0 0 6 19 42 55 81 84 77 71 65 48 29 32 16 6 10 3 0 0 0 0 0 0 0 0 0 0 0 0 0 0 0 0 0 0 0 0
0 0 0 0 0 0 0 0 0 0 0 0 3 10 23 45 65 71 71 71 71 35 16 16 10 6 3 3 0 0 0 0 0 0 0 0 0 0 0 0 0 0 0 0 0 0 0 0 0
0 0 0 0 0 0 0 0 0 3 3 6 16 23 39 52 74 81 81 74 42 19 6 6 3 0 3 3 0 0 0 0 0 0 0 0 0 0 0 0 0 0 0 0 0 0 0 0 0
0 0 0 0 0 0 0 0 3 6 10 16 29 48 68 71 84 71 65 39 23 10 3 3 0 0 0 0 0 0 0 0 0 0 0 0 0 0 0 0 0 0 0 0 0 0 0 0 0
0 0 0 0 0 0 0 0 3 13 23 35 61 61 58 58 42 32 16 10 0 0 0 0 0 0 0 0 0 0 0 0 0 0 0 0 0 0 0 0 0 0 0 0 0 0 0 0 0
0 0 0 0 0 0 0 0 0 3 26 52 48 52 42 29 13 6 0 0 0 0 0 0 0 0 0 0 0 0 0 0 0 0 0 0 0 0 0 0 0 0 0 0 0 0 0 0 0
0 0 0 0 0 0 0 0 0 3 32 45 35 32 23 10 3 0 0 0 0 0 0 0 0 0 0 0 0 0 0 0 0 0 0 0 0 0 0 0 0 0 0 0 0 0 0 0 0
0 0 0 0 0 0 0 0 6 10 19 39 29 26 13 3 3 0 0 0 0 0 0 0 0 0 0 0 0 0 0 0 0 0 0 0 0 0 0 0 0 0 0 0 0 0 0 0 0
Height
5900 5902 5905 5908 5911 5911 5909 5908 5907 5905 5905 5906 5908 5908 5908 5908 5908 5908 5906 5904 5903 5902 5901 5900 5900 5900 5900 5900 5900 5900 5899 5899 5899 5898 5898 5898 5898 5898 5899 5899 5899 5899 5898 5898 5898 5898 5898 5897 5897
5897 5900 5904 5906 5908 5909 5908 5906 5906 5905 5905 5906 5908 5908 5908 5907 5906 5905 5903 5902 5901 5900 5899 5899 5899 5899 5899 5899 5898 5898 5898 5897 5897 5897 5896 5896 5896 5896 5896 5896 5896 5896 5896 5895 5895 5895 5895 5895 5894
5895 5898 5901 5904 5906 5908 5907 5906 5906 5904 5904 5906 5908 5908 5907 5906 5905 5903 5902 5901 5900 5899 5899 5898 5898 5898 5898 5897 5897 5897 5896 5896 5896 5895 5895 5895 5894 5894 5894 5894 5893 5893 5893 5893 5892 5892 5892 5891 5891
5892 5896 5899 5903 5905 5906 5906 5906 5905 5904 5905 5906 5907 5907 5906 5906 5904 5902 5901 5900 5900 5899 5898 5898 5897 5897 5896 5896 5896 5895 5895 5895 5894 5894 5893 5893 5893 5892 5892 5891 5891 5891 5891 5890 5890 5889 5889 5888 5888
5890 5893 5897 5900 5902 5904 5905 5905 5904 5904 5904 5905 5906 5905 5905 5905 5903 5901 5900 5900 5899 5898 5898 5897 5896 5896 5895 5895 5894 5894 5893 5893 5893 5892 5892 5892 5891 5891 5890 5890 5889 5889 5888 5888 5887 5887 5886 5885 5885
5889 5891 5895 5897 5900 5901 5902 5902 5902 5902 5903 5904 5905 5905 5904 5904 5902 5900 5899 5899 5898 5898 5897 5896 5896 5895 5894 5894 5893 5892 5892 5892 5891 5891 5891 5890 5890 5889 5889 5888 5888 5887 5886 5886 5885 5884 5883 5883 5882
5888 5890 5892 5895 5898 5900 5901 5899 5898 5899 5900 5903 5904 5904 5903 5903 5902 5900 5898 5898 5898 5897 5896 5896 5895 5894 5893 5893 5892 5891 5891 5890 5890 5890 5889 5889 5888 5888 5887 5887 5886 5885 5884 5884 5883 5882 5881 5880 5879
5885 5888 5890 5894 5896 5897 5897 5897 5897 5897 5899 5902 5903 5904 5903 5903 5902 5900 5898 5898 5898 5897 5896 5895 5894 5893 5892 5892 5891 5890 5890 5889 5888 5888 5887 5887 5886 5886 5885 5885 5884 5883 5882 5881 5880 5879 5878 5877 5876
5884 5887 5888 5891 5893 5893 5892 5893 5894 5896 5898 5899 5902 5902 5903 5902 5902 5901 5899 5898 5898 5897 5895 5894 5893 5892 5891 5890 5890 5889 5888 5888 5887 5886 5886 5885 5884 5884 5883 5882 5881 5881 5880 5879 5878 5877 5875 5874 5873
5882 5885 5887 5889 5889 5889 5888 5889 5892 5895 5896 5898 5899 5900 5901 5901 5901 5901 5900 5898 5897 5896 5895 5893 5892 5891 5890 5889 5888 5888 5887 5886 5886 5885 5884 5883 5882 5881 5880 5880 5879 5878 5877 5876 5874 5873 5872 5871 5869
5881 5882 5884 5885 5885 5885 5885 5886 5889 5892 5893 5895 5897 5898 5899 5899 5899 5899 5900 5898 5896 5894 5893 5892 5891 5890 5889 5888 5887 5886 5885 5884 5884 5883 5882 5881 5880 5879 5878 5877 5876 5875 5874 5873 5871 5870 5869 5867 5866
5878 5879 5880 5881 5882 5882 5883 5883 5885 5888 5890 5892 5893 5895 5896 5897 5897 5897 5897 5897 5896 5894 5893 5891 5889 5888 5887 5886 5885 5884 5883 5882 5881 5881 5880 5878 5877 5876 5875 5875 5873 5872 5871 5870 5868 5867 5865 5864 5862
5875 5876 5877 5878 5879 5880 5880 5881 5882 5884 5886 5888 5889 5891 5892 5892 5893 5894 5894 5895 5895 5894 5892 5890 5888 5886 5885 5884 5883 5882 5880 5879 5878 5878 5877 5876 5875 5873 5872 5871 5870 5869 5867 5866 5864 5863 5861 5860 5858
5872 5872 5873 5874 5876 5877 5878 5879 5880 5881 5883 5884 5885 5887 5887 5888 5889 5890 5891 5891 5891 5891 5889 5887 5885 5884 5883 5882 5881 5879 5878 5876 5875 5874 5874 5873 5872 5870 5869 5867 5866 5865 5863 5861 5860 5858 5857 5855 5853
5866 5867 5869 5871 5873 5874 5875 5877 5878 5879 5879 5880 5881 5882 5883 5884 5885 5886 5887 5887 5886 5886 5885 5883 5881 5880 5879 5879 5877 5876 5875 5873 5872 5870 5869 5868 5867 5865 5864 5862 5860 5859 5858 5856 5854 5852 5850 5849 5847
5860 5862 5865 5869 5870 5871 5873 5875 5877 5876 5875 5876 5877 5878 5878 5879 5880 5881 5882 5882 5881 5881 5879 5877 5876 5875 5874 5873 5872 5871 5870 5869 5867 5865 5864 5862 5860 5859 5857 5855 5853 5851 5850 5848 5846 5844 5842 5840 5839
5855 5859 5862 5865 5866 5868 5868 5871 5874 5872 5872 5873 5873 5874 5874 5874 5875 5875 5876 5876 5876 5876 5874 5872 5870 5869 5868 5866 5865 5865 5864 5862 5861 5859 5857 5855 5853 5851 5849 5848 5846 5844 5842 5840 5838 5836 5834 5831 5830
5851 5853 5856 5859 5862 5861 5862 5865 5868 5867 5867 5868 5869 5870 5869 5869 5870 5871 5871 5870 5869 5869 5868 5867 5865 5863 5862 5860 5858 5857 5856 5855 5854 5852 5850 5848 5845 5843 5842 5840 5838 5836 5834 5832 5830 5827 5825 5822 5820
5844 5845 5848 5853 5854 5854 5854 5857 5861 5863 5862 5863 5864 5865 5865 5865 5865 5865 5865 5864 5864 5863 5862 5861 5860 5858 5855 5852 5850 5850 5848 5848 5847 5845 5842 5840 5838 5835 5833 5831 5830 5828 5825 5823 5820 5818 5815 5813 5811
5836 5838 5841 5846 5849 5848 5848 5850 5853 5855 5857 5858 5859 5860 5860 5860 5860 5858 5858 5858 5857 5856 5855 5855 5853 5851 5849 5845 5843 5842 5841 5840 5839 5837 5835 5832 5830 5827 5825 5823 5821 5819 5816 5814 5811 5808 5805 5802 5800
5829 5833 5836 5840 5842 5841 5842 5843 5846 5849 5851 5853 5854 5855 5855 5854 5854 5853 5852 5852 5851 5850 5849 5848 5846 5845 5842 5839 5836 5835 5833 5833 5831 5830 5827 5824 5821 5819 5817 5814 5812 5809 5807 5804 5801 5798 5795 5792 5789
5824 5828 5830 5832 5835 5836 5837 5836 5841 5843 5845 5847 5848 5849 5848 5848 5848 5848 5847 5847 5845 5844 5843 5841 5840 5837 5834 5831 5829 5828 5826 5825 5824 5822 5819 5816 5813 5811 5808 5805 5803 5800 5797 5794 5791 5788 5785 5781 5778
5818 5821 5824 5826 5827 5829 5831 5831 5836 5838 5839 5841 5842 5842 5842 5841 5841 5841 5841 5841 5839 5838 5836 5835 5833 5829 5827 5825 5822 5820 5819 5818 5816 5814 5811 5809 5806 5803 5800 5796 5793 5790 5787 5783 5780 5777 5774 5770 5766
5812 5815 5817 5819 5820 5823 5827 5827 5828 5832 5833 5833 5834 5834 5835 5835 5835 5835 5835 5834 5833 5831 5830 5828 5825 5822 5820 5818 5815 5813 5812 5811 5808 5805 5804 5801 5798 5795 5791 5787 5783 5780 5776 5773 5769 5765 5762 5758 5753
5806 5809 5812 5813 5814 5818 5821 5821 5823 5824 5824 5824 5825 5826 5827 5827 5828 5828 5828 5827 5826 5824 5823 5820 5817 5815 5813 5811 5808 5806 5805 5803 5801 5798 5795 5792 5789 5785 5781 5777 5773 5770 5766 5762 5758 5754 5749 5745 5740
5801 5804 5807 5809 5811 5813 5815 5815 5817 5816 5817 5817 5818 5819 5819 5820 5821 5821 5820 5819 5818 5817 5814 5812 5809 5807 5805 5803 5801 5799 5796 5794 5792 5789 5786 5782 5778 5774 5771 5767 5763 5759 5754 5750 5746 5741 5737 5731 5726
5796 5799 5802 5804 5805 5806 5809 5811 5811 5810 5811 5812 5812 5813 5813 5814 5814 5814 5813 5812 5810 5808 5806 5804 5801 5799 5797 5795 5793 5789 5787 5784 5781 5778 5775 5771 5767 5763 5759 5755 5751 5747 5742 5737 5732 5727 5722 5716 5711
5791 5795 5797 5797 5799 5800 5803 5805 5805 5804 5805 5806 5806 5806 5807 5807 5806 5806 5806 5804 5803 5801 5798 5795 5793 5791 5789 5786 5784 5781 5778 5774 5771 5767 5763 5759 5755 5751 5746 5742 5738 5733 5728 5723 5718 5712 5706 5700 5694
5785 5788 5789 5791 5793 5795 5797 5800 5798 5799 5799 5800 5800 5801 5801 5801 5800 5799 5797 5796 5794 5792 5789 5786 5783 5782 5779 5777 5774 5771 5768 5764 5760 5755 5751 5747 5742 5738 5733 5728 5723 5718 5713 5707 5702 5696 5690 5684 5678
5778 5780 5783 5785 5787 5789 5791 5793 5790 5791 5792 5793 5794 5794 5794 5793 5792 5791 5789 5787 5785 5782 5779 5777 5774 5772 5769 5767 5763 5760 5756 5752 5748 5743 5738 5734 5729 5724 5719 5714 5709 5704 5698 5692 5687 5681 5675 5669 5662
Wind_Speed
20 19 17 15 13 10 8 9 6 4 7 11 14 17 19 18 16 13 11 11 11 11 10 9 9 9 9 10 10 11 12 13 14 15 17 18 19 19 19 20 20 20 20 20 21 21 21 21 21
22 20 18 17 15 13 11 11 8 5 9 12 14 15 15 14 12 11 9 9 9 8 7 6 6 6 6 7 7 8 9 10 11 12 13 15 16 17 18 19 19 20 20 21 21 21 21 21 21
22 21 19 17 16 16 12 10 7 5 10 12 13 14 13 10 9 9 8 7 6 6 5 5 5 5 6 6 7 8 8 8 9 10 11 12 14 15 17 18 19 19 20 20 20 21 21 21 21
21 19 18 17 17 17 13 10 7 6 9 12 14 13 10 7 7 7 7 6 6 5 5 4 4 5 5 6 6 6 7 8 8 9 10 11 12 13 15 16 17 18 19 19 19 20 20 20 20
17 17 16 16 17 17 15 11 8 7 10 12 14 12 9 6 6 7 7 7 7 6 5 5 5 5 5 5 6 6 7 7 8 9 9 10 11 12 13 14 15 16 17 18 18 18 18 19 19
14 14 15 17 18 17 13 10 7 8 10 13 13 11 9 7 7 8 8 8 7 7 6 6 6 5 5 6 6 6 7 7 8 9 9 10 11 12 12 13 14 15 16 17 17 17 17 18 19
13 13 16 20 20 16 14 11 6 6 11 14 15 13 9 8 8 8 9 9 8 7 7 7 6 6 6 6 6 7 7 7 8 9 10 10 11 12 12 13 14 15 16 17 17 17 18 18 19
13 16 19 20 20 16 15 10 6 7 13 16 15 11 9 7 7 8 9 9 9 8 7 7 6 6 6 6 7 7 8 8 8 9 10 11 11 12 13 14 15 16 16 16 17 18 18 19 20
12 18 21 22 22 19 15 9 6 10 16 17 15 10 8 5 6 7 8 9 9 9 8 7 7 7 7 7 7 7 8 8 9 9 10 10 11 12 13 14 14 15 16 16 17 18 19 20 21
13 20 24 25 24 21 15 10 8 13 16 17 15 11 6 6 5 7 9 9 9 10 9 8 8 8 7 7 8 8 8 9 9 9 10 11 11 12 12 13 14 14 15 16 17 18 18 19 20
16 24 27 28 25 21 16 11 11 15 17 17 15 12 9 9 9 9 10 9 9 10 10 10 10 9 8 8 9 9 9 9 10 10 10 11 12 12 13 13 14 15 15 15 16 17 18 19 20
19 26 28 28 26 22 17 15 15 18 19 19 18 16 14 13 13 12 12 11 10 9 10 10 10 11 11 10 10 10 10 11 11 11 12 12 13 14 15 15 16 16 16 16 16 17 18 20 21
22 26 28 28 26 23 20 19 20 22 21 21 20 18 17 16 15 15 14 15 13 12 11 10 11 12 12 12 13 12 12 12 12 13 13 14 15 16 17 17 17 18 19 19 19 20 20 21 22
24 28 28 28 27 24 23 23 25 25 25 25 23 22 20 18 19 18 18 18 17 15 12 12 12 13 13 14 14 14 14 14 14 15 15 16 17 18 19 20 21 21 21 22 23 24 25 25 26
29 30 29 27 26 24 23 24 26 27 28 28 26 24 23 23 22 21 21 22 21 20 17 13 15 16 17 17 16 17 16 16 17 17 18 19 19 20 22 23 24 25 26 26 27 28 29 30 30
32 32 29 27 26 24 23 21 24 29 31 30 28 26 26 25 25 26 26 25 24 23 21 20 20 21 22 22 21 20 20 19 20 20 21 22 23 24 25 26 27 29 29 30 31 32 33 34 35
33 31 29 27 26 24 25 19 22 28 32 32 29 27 28 28 29 30 30 29 27 26 25 24 25 26 27 27 26 26 25 24 24 24 25 26 27 29 29 29 30 32 33 34 34 35 36 37 38
30 30 29 27 24 25 24 21 20 26 29 30 28 27 28 31 32 33 34 33 32 30 30 29 28 30 32 33 32 31 31 30 29 29 30 31 31 32 33 34 35 36 36 37 37 37 38 38 39
30 32 31 28 26 27 26 23 21 23 28 29 28 28 30 32 34 35 35 34 34 34 33 32 32 34 36 36 35 35 35 34 34 33 34 35 35 36 37 38 38 38 38 38 39 39 40 40 41
32 33 31 28 29 30 29 28 26 25 27 28 28 30 32 33 35 36 36 37 36 35 35 35 36 38 39 38 36 37 38 37 36 36 36 38 39 40 39 40 40 40 40 40 40 41 42 43 43
31 31 29 28 28 31 32 32 28 27 27 28 29 31 33 35 35 36 37 37 36 36 36 37 39 41 42 41 39 38 38 38 38 38 38 40 40 41 41 41 40 41 41 41 42 42 43 45 46
28 27 27 28 30 31 32 34 28 27 28 28 29 31 33 35 36 37 36 35 35 36 37 38 41 42 41 40 40 41 39 39 39 39 40 41 41 41 42 41 42 43 43 44 44 45 45 46 49
25 23 24 26 30 32 33 35 30 29 31 31 31 33 34 36 36 35 34 33 34 36 38 40 43 42 40 41 41 39 39 39 40 40 41 42 42 42 43 43 45 45 46 46 47 47 48 49 50
21 21 24 27 30 31 28 31 29 25 29 33 36 37 37 36 35 34 33 33 35 38 40 42 44 43 42 42 40 39 39 39 41 41 42 43 43 44 44 45 46 46 47 48 49 50 50 52 54
22 23 25 28 28 25 20 25 22 20 25 30 33 35 35 34 32 32 32 34 36 40 43 45 44 44 43 43 41 39 39 40 41 43 44 45 45 45 46 47 47 48 49 50 51 51 52 55 57
23 24 25 24 23 20 19 19 16 18 22 24 25 25 27 28 29 29 31 35 39 42 44 44 44 43 43 42 40 39 41 41 43 45 46 47 47 47 48 49 49 50 50 51 52 54 56 58 60
21 22 21 21 21 20 20 19 17 18 19 21 21 22 23 25 28 31 34 37 40 42 44 45 45 43 40 40 39 40 41 43 45 47 48 49 50 51 51 51 51 53 54 54 56 57 59 61 62
22 20 22 23 22 21 21 19 20 21 22 23 24 25 26 28 31 33 36 39 41 43 45 44 42 40 39 39 40 41 43 46 48 50 51 52 53 53 54 55 56 57 58 58 59 60 61 62 63
27 26 25 24 24 24 23 22 23 24 26 28 29 30 31 32 34 36 38 40 42 44 44 43 41 39 38 40 41 43 45 48 50 53 54 55 56 57 58 59 60 60 61 61 62 63 63 64 63
28 29 28 28 26 25 25 26 28 29 30 30 30 32 33 35 37 38 40 42 44 44 43 42 41 41 41 42 44 47 49 52 54 56 57 59 60 61 61 62 62 62 62 62 62 63 63 63 62
Wind_Direction
210 204 198 191 188 185 217 247 262 287 300 320 325 324 324 322 323 321 313 307 302 300 298 294 292 290 285 280 277 274 271 268 266 264 262 261 260 260 260 261 262 263 264 264 263 263 262 263 263
215 210 203 195 192 190 220 244 250 283 300 313 321 324 320 318 322 324 320 312 307 308 302 302 302 300 293 287 283 279 275 272 269 266 262 261 260 260 260 260 262 263 264 264 264 264 265 265 266
217 215 208 199 192 196 215 234 245 272 296 306 318 321 313 319 324 328 330 328 327 321 316 315 314 312 305 298 294 290 285 279 275 272 269 265 263 261 260 260 261 262 263 264 265 266 267 267 268
219 217 210 199 191 201 218 239 258 276 287 307 320 319 311 325 336 342 348 350 345 336 329 328 324 321 317 312 308 306 300 292 287 281 276 272 269 265 263 263 263 264 265 266 266 267 267 267 268
220 216 204 192 192 203 219 238 253 274 295 311 321 322 317 338 352 351 357 2 356 349 339 330 325 322 323 322 322 319 315 310 303 295 286 280 277 273 270 268 268 268 268 268 269 269 268 268 268
218 209 197 186 190 201 212 225 252 279 301 309 316 317 319 343 358 354 355 1 353 347 339 331 323 318 323 327 329 328 323 318 313 306 298 291 286 282 278 274 272 271 270 271 271 271 271 271 271
209 197 183 180 185 195 204 218 243 288 305 302 307 307 315 334 353 356 358 3 355 342 333 326 321 321 326 329 329 328 325 321 316 308 301 296 290 286 283 279 277 275 274 274 275 274 273 273 273
200 188 176 175 181 193 206 218 245 289 294 293 301 305 314 332 357 3 359 1 354 341 333 327 327 326 329 330 331 328 324 320 316 310 305 300 295 292 288 284 281 280 279 278 278 278 276 276 275
198 183 173 175 183 192 200 207 231 271 280 285 288 295 308 330 359 11 1 357 355 345 338 335 333 334 332 329 331 331 330 327 321 317 312 306 301 297 294 290 287 285 284 282 281 280 279 278 277
195 181 178 183 188 194 199 199 226 255 269 275 279 291 298 327 352 2 356 350 350 347 344 344 339 340 339 334 333 331 330 329 327 323 319 314 309 305 300 295 292 288 285 283 281 281 281 279 278
189 182 187 192 196 199 203 206 225 249 257 265 272 277 281 304 315 327 335 337 341 344 345 349 343 340 342 340 336 330 326 326 327 326 323 321 317 313 309 304 299 292 287 286 286 285 282 281 280
194 194 200 203 206 206 210 214 226 242 251 259 271 275 284 288 299 305 318 326 328 334 336 343 341 336 338 340 337 333 328 325 323 323 323 321 320 317 315 312 307 298 295 292 290 287 286 284 282
205 207 209 213 216 220 224 218 225 236 245 255 266 271 280 283 292 301 306 314 313 312 318 326 332 331 330 330 330 331 331 328 325 323 321 319 319 317 314 312 308 305 301 298 294 291 289 286 284
214 216 217 221 224 230 231 221 223 231 242 253 263 270 279 281 289 295 297 304 306 307 310 315 319 324 323 323 323 323 324 321 320 318 316 314 314 314 311 307 307 305 302 299 295 291 289 286 284
220 222 226 229 233 237 237 227 226 232 242 252 261 269 278 284 287 291 294 298 301 308 305 313 318 317 316 316 315 314 313 311 309 309 309 309 309 308 306 304 303 303 299 296 294 292 288 286 285
227 229 233 236 239 243 243 235 230 234 241 249 258 267 276 282 287 292 292 295 299 305 308 311 313 310 310 311 310 308 305 303 301 301 302 303 304 303 303 303 302 302 300 296 294 292 290 288 286
232 235 237 239 243 245 247 241 229 235 239 245 252 263 272 280 286 290 293 294 298 306 308 308 309 308 306 306 305 307 303 299 298 297 297 297 297 297 299 299 301 300 299 296 293 291 290 288 286
236 238 237 235 237 239 243 239 226 233 239 243 250 259 269 277 282 287 290 294 298 304 308 307 306 307 305 301 302 305 302 298 296 295 295 294 293 293 293 295 296 297 297 295 291 289 289 287 286
233 235 234 231 227 230 232 235 228 229 237 242 249 258 267 275 281 285 290 295 299 303 305 305 303 303 300 297 298 300 298 296 294 292 291 292 291 290 290 292 293 294 294 294 292 288 287 286 285
231 233 233 229 228 233 234 237 235 229 236 244 252 259 268 275 281 286 290 294 297 299 301 303 302 299 296 293 292 293 292 292 291 290 290 290 290 290 290 292 292 292 292 292 291 288 287 287 286
232 235 235 231 225 232 238 242 242 240 240 244 252 260 267 274 279 283 287 290 292 294 297 299 298 295 291 288 289 288 286 286 288 288 288 289 291 293 294 294 294 294 292 292 292 289 287 288 287
228 232 234 231 227 228 238 245 241 241 241 243 250 259 266 270 275 279 282 286 288 291 293 294 293 291 288 288 289 288 286 285 286 286 288 289 291 293 295 295 295 294 292 292 292 291 289 288 288
222 223 229 231 233 234 235 246 245 240 242 244 248 253 258 264 269 274 277 281 284 286 288 289 289 288 289 290 290 289 288 287 286 286 287 290 291 293 294 295 295 294 294 293 293 292 290 290 290
219 222 230 236 240 243 240 247 251 243 244 244 247 251 255 259 263 267 272 277 280 282 284 285 287 288 291 292 292 290 290 288 288 288 289 290 291 292 293 294 294 294 294 293 293 292 291 291 291
217 226 234 239 243 247 241 244 245 236 238 243 246 249 251 252 256 261 268 273 275 276 279 282 285 288 290 292 293 293 291 289 289 290 290 291 292 292 292 292 293 293 293 293 292 292 291 291 291
216 228 236 243 246 240 228 234 236 234 237 243 249 251 251 253 255 259 263 265 267 270 274 279 282 285 288 291 292 291 291 291 291 291 291 291 291 291 291 291 292 292 292 292 292 292 291 290 290
221 231 240 246 245 238 225 230 243 244 246 248 252 255 256 257 258 259 261 263 267 270 273 276 279 282 286 289 291 292 292 291 291 291 290 290 289 289 290 291 291 291 291 292 292 291 292 292 293
223 234 243 245 246 243 236 237 245 249 249 253 257 261 262 263 263 264 266 267 270 273 275 279 281 280 284 288 291 292 291 291 290 290 289 289 289 289 290 291 292 292 292 292 292 293 294 295 296
221 227 237 244 246 248 249 247 246 246 248 252 256 260 263 265 267 269 271 272 274 276 278 280 279 279 283 287 289 289 289 289 289 289 289 289 288 289 290 291 292 292 293 293 294 294 295 297 298
225 225 231 238 243 247 251 252 249 249 250 253 255 258 262 266 268 270 272 274 276 278 281 281 281 283 284 286 287 287 287 287 288 287 287 287 288 289 290 291 291 292 293 294 294 295 296 298 299